(473729) = 2005 JN110 = 2016 CE58

Discovered at Kitt Peak on 2005-05-08 by Spacewatch.

Orbit

Orbit type: Main Belt

Note: WebGL enabled browser required.

epoch2024-03-31.0
epoch JD2460400.5
perihelion date2023-10-21.89413
perihelion JD2460239.39413
argument of perihelion (°)69.63064
ascending node (°)79.55561
inclination (°)6.16874
eccentricity0.1600622
perihelion distance (AU)2.0536053
Tisserand w.r.t. Jupiter3.5
ΔV w.r.t. Earth (km/sec)9.1
semimajor axis (AU)2.4449493
mean anomaly (°)41.53464
mean daily motion (°/day)0.25780960
aphelion distance (AU)2.836
period (years)3.82
P-vector [x]-0.85349869
P-vector [y]0.42900547
P-vector [z]0.29579435
Q-vector [x]-0.51026706
Q-vector [y]-0.80318059
Q-vector [z]-0.30745482
absolute magnitude17.97
phase slope0.15
uncertainty0
referenceMPEC 2024-F50
observations used122
oppositions9
arc length (days)6890
first opposition used2005
last opposition used2024
residual rms (arc-secs)0.78
perturbers coarse indicatorM-v
perturbers precise indicator003Ek
first observation date used2005-05-08.0
last observation date used2024-03-19.0
computer nameMPCLINUX
JD of orbit computation2457578.022663
perihelion JD uncertainty (days)5.4642E-05
argument of perihelion uncertainty (°)4.9322E-05
ascending node uncertainty (°)4.5457E-05
inclination uncertainty (°)3.0569E-06
eccentricity uncertainty 4.8508E-08
perihelion distance uncertainty (AU)1.2156E-07
Minimum Orbit Intersection Distances (in AU)
for orbit epoch: 2460400.5, reference: E2024-GB3
Mercury1.69076
Venus1.33603
Earth1.07521
Mars0.40954
Jupiter2.18615
Saturn6.67435
Uranus16.376
Neptune27.1284

Observations

124 total observations over interval: 2005 05 08.29885 – 2024 03 19.607388
These data are available for download (format description).

